STARLINK-34323, 64219

Orbit data source: Space-Track

STARLINK-34323, 64219 is a payload satellite owned by SpaceX/Seattle (US) in LEO that was launched on Sat, 31 May 2025 UTC via an FALCON 9 launch vehicle from the Air Force Western Test Range (AFWTR). Payload-class satellites include a variety of spacecraft equipped with specific instruments for various scientific and technological missions. These include communications satellites like Starlink; space stations such as the ISS; scientific satellites like the Hubble; Earth observation satellites from companies like Planet Labs, Umbra, and HawkEye 360; GPS; miniature CubeSats for education and research; and military/defense satellites.

Loading next visibility...
Identifier
64219, 2025-117S
Orbit
LEO
Country
Flag of USUS
Related business
Manufacturer
SpaceX/Seattle
Mission
Operational Commercial Communications
Bus & Motor
STARLINK V2MO, Unknown motor
Mass
575 kg wet, ~530 kg dry
Launch date (UTC)
2025-05-31 (1 year ago)
Launch vehicle
FALCON 9
Launch site
Air Force Western Test Range (AFWTR)
Object type
Payload
Rocket body
Debris
Shape & HBR
Box + 1 Pan, 17.7 m
Radar Cross Section
41.120 m², Large (>1 m²)

Expand to show TLE details & history
Last TLE update: 14 hours ago

TLE from 14 hours ago
0 STARLINK-34323
1 64219U 25117S   26235.70510593  .00033285  00000-0  99124-3 0  9995
2 64219  53.1609 343.3284 0001046  50.2229 309.8866 15.34420603 70135
Epoch: 2026-08-23T16:55Z
TLE epoch observation values (Epoch: 2026-08-23T16:55:21.152Z)
Latitude
0.00002°
Longitude
117.49295°
Altitude
463.085 km
Speed
7.636 km/s
True Right ascension
22h 53m 18s
True Declination
0° 00' 00"
Sunlit
Object was in full shadow at epoch
Visualization orbit readout
Latitude
Unknown
Longitude
Unknown
Altitude
Unknown
Speed
Unknown
Apparent Right ascension
Unknown
Apparent Declination
Unknown
Sunlit
N/A
Visualization observer readout
Local Sidereal Time
21:45:30
Azimuth
Unknown
Elevation
Unknown
Doppler factor
Unknown
Orbital elements
Apogee altitude
463.614 km
Perigee altitude
462.183 km
Semi-major axis
6,841.036 km
Eccentricity
0.0001
Inclination
53.1609°
RAAN
343.3284°
Arg. of periapsis
50.2229°
True anomaly
309.8774°
Mean anomaly
309.8866°
Eccentric anomaly
309.882°
Mean motion
3.83584 °/min
Orbital period
93.85 mins
BSTAR
0.00099124
Loading maneuver chart data...
Computing Atmospheric mass density...
Loading historical data...
Loading historical data...
Loading historical data...
Loading historical data...
Loading historical data...
Loading historical data...
Loading historical data...

Documentation

Showing up to 5 results
|